Location: Newark
(45.2500°N, 7.5833°E)
Time: 03:45:22
(UTC+00:00)

Tiros 1 despin weight - Pass Details

Date: 31 January 2020
Orbit: 594 x 642 km, 48.2° (Epoch: 18 February)

Event Time Altitude Azimuth Distance (km) Brightness Sun altitude
Rises 11:16:47 0° 276° (W) 2,861 ? 27.0°
Reaches altitude 10° 11:19:06 10° 281° (W) 1,965 ? 27.1°
Maximum altitude 11:23:34 59° 1° (N) 718 ? 27.1°
Drops below altitude 10° 11:28:06 10° 81° (E) 1,996 ? 27.2°
Sets 11:30:28 0° 85° (E) 2,910 ? 27.2°
